Location: Mentone
(34.5413°N, 85.5351°W)
Time: 16:40:25
(UTC-05:00)

A-11 Canister half - Visible Passes

Search period start: 28 March 2017 00:00
Search period end: 07 April 2017 00:00
Orbit: 1527 x 1682 km, 47.3° (Epoch: 27 March)

Date Brightness Start Highest point End Pass type
(mag) Time Alt. Az. Time Alt. Az. Time Alt. Az.
02 Apr 11.2 06:04:11 10° SSE 06:10:36 19° ESE 06:17:01 10° E visible
03 Apr 11.2 05:43:04 10° SSE 05:49:03 18° ESE 05:55:03 10° E visible
04 Apr 11.2 05:22:01 10° SSE 05:27:31 16° ESE 05:33:02 10° E visible
05 Apr 11.2 05:01:03 10° SSE 05:06:00 15° ESE 05:10:56 10° E visible
06 Apr 11.2 04:40:12 10° SSE 04:44:28 13° ESE 04:48:44 10° E visible
